| time (UTC) | temp F | wind direction | speed MPH | gust MPH | rain 1hr in | rain 24hr in | rain mn in | humidity % | barometer mb |
| 20260902090041 | 40 | 0 | 0.0 | 3.0 | 0.00 | 0.00 | 0.00 | 83 | 1010.0 |
| 20260902084541 | 41 | 0 | 0.0 | 0.0 | 0.00 | 0.00 | 0.00 | 81 | 1010.1 |
| 20260902083041 | 39 | 0 | 0.0 | 0.0 | 0.00 | 0.00 | 0.00 | 85 | 1010.0 |
| 20260902081539 | 39 | 0 | 0.0 | 0.0 | 0.00 | 0.00 | 0.00 | 86 | 1010.1 |
| 20260902080037 | 40 | 0 | 0.0 | 0.0 | 0.00 | 0.00 | 0.00 | 86 | 1010.1 |
| 20260902074536 | 40 | 0 | 0.0 | 0.0 | 0.00 | 0.00 | 0.00 | 86 | 1009.9 |
| 20260902073038 | 40 | 0 | 0.0 | 0.0 | 0.00 | 0.00 | 0.00 | 87 | 1009.9 |
| 20260902071543 | 41 | 0 | 0.0 | 0.0 | 0.00 | 0.00 | 0.00 | 86 | 1010.0 |
| 20260902070043 | 42 | 0 | 0.0 | 0.0 | 0.00 | 0.00 | 0.00 | 86 | 1009.8 |
| 20260902064541 | 42 | 0 | 0.0 | 0.0 | 0.00 | 0.00 | 0.00 | 86 | 1009.9 |
| 20260902063035 | 43 | 0 | 0.0 | 0.0 | 0.00 | 0.00 | 0.00 | 87 | 1009.9 |
| 20260902061541 | 44 | 0 | 0.0 | 0.0 | 0.00 | 0.00 | 0.00 | 86 | 1009.9 |
| 20260902060039 | 45 | 0 | 0.0 | 0.0 | 0.00 | 0.00 | 0.00 | 87 | 1009.7 |
| 20260902054536 | 46 | 0 | 0.0 | 0.0 | 0.00 | 0.00 | 0.00 | 86 | 1009.8 |
| 20260902053036 | 47 | 0 | 0.0 | 0.0 | 0.00 | 0.00 | 0.00 | 85 | 1009.8 |
| 20260902051537 | 48 | 0 | 0.0 | 0.0 | 0.00 | 0.00 | 0.00 | 83 | 1009.5 |
| 20260902050039 | 50 | 0 | 0.0 | 0.0 | 0.00 | 0.00 | 0.00 | 80 | 1009.4 |
| 20260902044535 | 53 | 0 | 0.0 | 0.0 | 0.00 | 0.00 | 0.00 | 72 | 1009.3 |
| 20260902043035 | 55 | 0 | 0.0 | 0.0 | 0.00 | 0.00 | 0.00 | 69 | 1009.3 |
| 20260902041549 | 56 | 0 | 0.0 | 0.0 | 0.00 | 0.00 | 0.00 | 69 | 1009.4 |
| 20260902040035 | 57 | 0 | 0.0 | 0.0 | 0.00 | 0.00 | 0.00 | 68 | 1009.6 |
| 20260902034537 | 57 | 0 | 0.0 | 0.0 | 0.00 | 0.00 | 0.00 | 64 | 1009.8 |
| 20260902033035 | 58 | 0 | 0.0 | 0.0 | 0.00 | 0.00 | 0.00 | 62 | 1009.7 |
| 20260902031537 | 59 | 0 | 0.0 | 0.0 | 0.00 | 0.00 | 0.00 | 61 | 1009.6 |
| 20260902030035 | 59 | 0 | 0.0 | 0.0 | 0.00 | 0.00 | 0.00 | 61 | 1009.4 |
| 20260902024536 | 58 | 0 | 0.0 | 0.0 | 0.00 | 0.00 | 0.00 | 60 | 1009.4 |
| 20260902023035 | 58 | 0 | 0.0 | 0.0 | 0.00 | 0.00 | 0.00 | 61 | 1009.5 |
| 20260902021534 | 57 | 0 | 0.0 | 0.0 | 0.00 | 0.00 | 0.00 | 63 | 1009.6 |
| 20260902020048 | 57 | 0 | 0.0 | 0.0 | 0.00 | 0.00 | 0.00 | 63 | 1009.6 |
| 20260902014533 | 57 | 0 | 0.0 | 0.0 | 0.00 | 0.00 | 0.00 | 62 | 1009.7 |
| 20260902013037 | 57 | 0 | 0.0 | 0.0 | 0.00 | 0.00 | 0.00 | 62 | 1009.6 |
| 20260902011535 | 57 | 0 | 0.0 | 0.0 | 0.00 | 0.00 | 0.00 | 62 | 1009.7 |
| 20260902010036 | 56 | 0 | 0.0 | 0.0 | 0.00 | 0.00 | 0.00 | 63 | 1009.7 |
| 20260902004534 | 57 | 0 | 0.0 | 2.0 | 0.00 | 0.00 | 0.00 | 64 | 1009.8 |
| 20260902003040 | 56 | 0 | 0.0 | 0.0 | 0.00 | 0.00 | 0.00 | 64 | 1009.8 |
| 20260902001535 | 56 | 0 | 0.0 | 0.0 | 0.00 | 0.00 | 0.00 | 63 | 1009.8 |
| 20260902000035 | 56 | 0 | 0.0 | 0.0 | 0.00 | 0.00 | 0.00 | 63 | 1009.8 |
| 20260901234539 | 56 | 0 | 0.0 | 0.0 | 0.00 | 0.00 | 0.00 | 65 | 1009.9 |
| 20260901233034 | 55 | 0 | 0.0 | 0.0 | 0.00 | 0.00 | 0.00 | 66 | 1009.9 |
| 20260901231542 | 55 | 0 | 0.0 | 0.0 | 0.00 | 0.00 | 0.00 | 64 | 1009.9 |
| 20260901230045 | 55 | 0 | 0.0 | 0.0 | 0.00 | 0.00 | 0.00 | 65 | 1009.9 |
| 20260901224534 | 55 | 0 | 0.0 | 1.0 | 0.00 | 0.00 | 0.00 | 62 | 1010.0 |
| 20260901223048 | 54 | 0 | 0.0 | 6.0 | 0.00 | 0.00 | 0.00 | 59 | 1010.1 |
| 20260901221541 | 54 | 0 | 0.0 | 0.0 | 0.00 | 0.00 | 0.00 | 60 | 1010.2 |
| 20260901220046 | 54 | 0 | 0.0 | 0.0 | 0.00 | 0.00 | 0.00 | 59 | 1010.4 |
| 20260901214537 | 53 | 0 | 0.0 | 0.0 | 0.00 | 0.00 | 0.00 | 59 | 1010.4 |
| 20260901213037 | 52 | 0 | 0.0 | 0.0 | 0.00 | 0.00 | 0.00 | 62 | 1010.6 |
| 20260901211535 | 52 | 0 | 0.0 | 1.0 | 0.00 | 0.00 | 0.00 | 60 | 1010.7 |
| 20260901210043 | 52 | 0 | 0.0 | 1.0 | 0.00 | 0.00 | 0.00 | 63 | 1010.7 |
| 20260901204539 | 51 | 0 | 0.0 | 0.0 | 0.00 | 0.02 | 0.00 | 64 | 1010.6 |
| 20260901203045 | 51 | 0 | 0.0 | 0.0 | 0.00 | 0.02 | 0.00 | 63 | 1010.6 |
| 20260901201533 | 50 | 0 | 0.0 | 1.0 | 0.00 | 0.02 | 0.00 | 62 | 1010.7 |
| 20260901200047 | 50 | 0 | 0.0 | 0.0 | 0.00 | 0.02 | 0.00 | 64 | 1010.8 |
| 20260901194541 | 49 | 0 | 0.0 | 0.0 | 0.00 | 0.04 | 0.00 | 64 | 1010.8 |
| 20260901193034 | 49 | 0 | 0.0 | 0.0 | 0.00 | 0.04 | 0.00 | 65 | 1010.9 |
| 20260901191537 | 49 | 0 | 0.0 | 0.0 | 0.00 | 0.04 | 0.00 | 67 | 1010.8 |
| 20260901190050 | 49 | 0 | 0.0 | 0.0 | 0.00 | 0.04 | 0.00 | 68 | 1010.8 |
| 20260901184540 | 48 | 0 | 0.0 | 0.0 | 0.00 | 0.05 | 0.00 | 68 | 1010.7 |
| 20260901183035 | 47 | 0 | 0.0 | 0.0 | 0.00 | 0.05 | 0.00 | 69 | 1010.8 |
| 20260901181534 | 47 | 0 | 0.0 | 0.0 | 0.00 | 0.05 | 0.00 | 67 | 1010.8 |
| 20260901180035 | 46 | 0 | 0.0 | 0.0 | 0.00 | 0.05 | 0.00 | 71 | 1010.8 |
| 20260901174537 | 46 | 0 | 0.0 | 0.0 | 0.00 | 0.05 | 0.00 | 71 | 1010.9 |
| 20260901173037 | 46 | 0 | 0.0 | 0.0 | 0.00 | 0.05 | 0.00 | 69 | 1011.0 |
| 20260901171543 | 45 | 0 | 0.0 | 0.0 | 0.00 | 0.05 | 0.00 | 75 | 1011.0 |
| 20260901170035 | 43 | 0 | 0.0 | 0.0 | 0.00 | 0.05 | 0.00 | 79 | 1011.2 |
| 20260901164541 | 41 | 0 | 0.0 | 0.0 | 0.00 | 0.05 | 0.00 | 86 | 1011.1 |
| 20260901163034 | 39 | 0 | 0.0 | 0.0 | 0.00 | 0.05 | 0.00 | 88 | 1011.2 |
| 20260901161534 | 37 | 0 | 0.0 | 0.0 | 0.00 | 0.05 | 0.00 | 90 | 1011.1 |
| 20260901160034 | 35 | 0 | 0.0 | 0.0 | 0.00 | 0.05 | 0.00 | 91 | 1011.1 |
| 20260901154536 | 35 | 0 | 0.0 | 0.0 | 0.00 | 0.13 | 0.00 | 90 | 1011.0 |
| 20260901153038 | 35 | 0 | 0.0 | 0.0 | 0.00 | 0.13 | 0.00 | 90 | 1010.9 |
| 20260901151537 | 35 | 0 | 0.0 | 0.0 | 0.00 | 0.13 | 0.00 | 90 | 1011.0 |
| 20260901150037 | 35 | 0 | 0.0 | 0.0 | 0.00 | 0.13 | 0.00 | 90 | 1010.8 |
| 20260901144533 | 36 | 0 | 0.0 | 0.0 | 0.00 | 0.31 | 0.00 | 90 | 1010.7 |
| 20260901143038 | 35 | 0 | 0.0 | 0.0 | 0.00 | 0.31 | 0.00 | 91 | 1010.8 |
| 20260901141535 | 35 | 0 | 0.0 | 0.0 | 0.00 | 0.31 | 0.00 | 89 | 1010.7 |
| 20260901140035 | 36 | 0 | 0.0 | 0.0 | 0.00 | 0.31 | 0.00 | 90 | 1010.7 |
| 20260901134540 | 37 | 0 | 0.0 | 0.0 | 0.00 | 0.38 | 0.00 | 87 | 1010.6 |
| 20260901133042 | 38 | 0 | 0.0 | 0.0 | 0.00 | 0.38 | 0.00 | 86 | 1010.6 |
| 20260901131533 | 38 | 0 | 0.0 | 0.0 | 0.00 | 0.38 | 0.00 | 86 | 1010.3 |
| 20260901130036 | 39 | 0 | 0.0 | 0.0 | 0.00 | 0.38 | 0.00 | 83 | 1010.2 |
| 20260901124536 | 40 | 0 | 0.0 | 0.0 | 0.00 | 0.38 | 0.00 | 83 | 1010.0 |
| 20260901123033 | 40 | 0 | 0.0 | 1.0 | 0.00 | 0.38 | 0.00 | 84 | 1009.8 |
| 20260901121534 | 40 | 0 | 0.0 | 0.0 | 0.00 | 0.38 | 0.00 | 83 | 1009.7 |
| 20260901120036 | 39 | 0 | 0.0 | 0.0 | 0.00 | 0.38 | 0.00 | 86 | 1009.6 |
| 20260901114533 | 39 | 0 | 0.0 | 0.0 | 0.00 | 0.38 | 0.00 | 86 | 1009.5 |
| 20260901113036 | 39 | 0 | 0.0 | 0.0 | 0.00 | 0.38 | 0.00 | 86 | 1009.3 |
| 20260901111534 | 39 | 0 | 0.0 | 0.0 | 0.00 | 0.38 | 0.00 | 86 | 1009.1 |
| 20260901110036 | 39 | 0 | 0.0 | 0.0 | 0.00 | 0.38 | 0.00 | 85 | 1009.1 |
| 20260901104543 | 40 | 0 | 0.0 | 0.0 | 0.00 | 0.38 | 0.00 | 85 | 1009.2 |
| 20260901103035 | 39 | 0 | 0.0 | 0.0 | 0.00 | 0.38 | 0.00 | 86 | 1009.2 |
| 20260901101544 | 39 | 0 | 0.0 | 0.0 | 0.00 | 0.38 | 0.00 | 86 | 1009.3 |
| 20260901100035 | 40 | 0 | 0.0 | 0.0 | 0.00 | 0.38 | 0.00 | 85 | 1008.9 |
| 20260901094539 | 40 | 0 | 0.0 | 0.0 | 0.00 | 0.38 | 0.00 | 84 | 1009.2 |
| 20260901093035 | 42 | 0 | 0.0 | 0.0 | 0.00 | 0.38 | 0.00 | 81 | 1009.2 |
| 20260901091543 | 42 | 0 | 0.0 | 0.0 | 0.00 | 0.38 | 0.00 | 82 | 1009.2 |